DW1521 Weather Reports


Display with metric or nautical units.
time (UTC)temp
F
wind
direction
speed
MPH
gust
MPH
rain 1hr
in
rain 24hr
in
rain mn
in
humidity
%
barometer
mb
20170816152114 83 331 5.0 8.0 0.00 0.00 0.00 48 1017.0
20170816150114 83 16 1.0 8.0 0.00 0.00 0.00 48 1017.0
20170816145114 83 330 6.0 12.0 0.00 0.00 0.00 47 1017.0
20170816144114 84 353 5.0 9.0 0.00 0.00 0.00 47 1017.0
20170816143114 84 0 3.0 8.0 0.00 0.00 0.00 47 1017.0
20170816142114 84 73 4.0 9.0 0.00 0.00 0.00 48 1017.0
20170816141113 84 27 5.0 9.0 0.00 0.00 0.00 47 1017.0
20170816140114 83 22 2.0 6.0 0.00 0.00 0.00 47 1017.0
20170816135114 83 34 3.0 7.0 0.00 0.00 0.00 47 1017.0
20170816134114 82 8 1.0 9.0 0.00 0.00 0.00 48 1018.0
20170816133114 83 56 1.0 8.0 0.00 0.00 0.00 47 1018.0
20170816132114 85 30 2.0 9.0 0.00 0.00 0.00 47 1018.0
20170816131114 85 23 2.0 12.0 0.00 0.00 0.00 47 1018.0
20170816130114 84 60 4.0 9.0 0.00 0.00 0.00 47 1018.0
20170816125114 85 74 3.0 9.0 0.00 0.00 0.00 46 1018.0
20170816124114 85 321 2.0 8.0 0.00 0.00 0.00 47 1018.0
20170816122114 85 87 2.0 6.0 0.00 0.00 0.00 47 1018.0
20170816121113 85 1 5.0 10.0 0.00 0.00 0.00 47 1018.0
20170816111114 84 60 2.0 8.0 0.00 0.00 0.00 48 1018.0
20170816110114 85 313 7.0 13.0 0.00 0.00 0.00 48 1018.0
20170816104113 85 340 4.0 10.0 0.00 0.00 0.00 48 1018.0
20170816103114 85 337 5.0 10.0 0.00 0.00 0.00 50 1018.3
20170816102114 83 334 3.0 9.0 0.00 0.00 0.00 52 1019.0
20170816100114 83 58 0.0 8.0 0.00 0.00 0.00 51 1019.0
20170816095114 82 330 6.0 9.0 0.00 0.00 0.00 53 1019.0
20170816094114 81 359 5.0 9.0 0.00 0.00 0.00 57 1019.0
20170816093114 80 40 0.0 6.0 0.00 0.00 0.00 58 1019.0
20170816092114 81 313 1.0 6.0 0.00 0.00 0.00 58 1019.0
20170816091114 81 344 0.0 8.0 0.00 0.00 0.00 58 1019.0
20170816090114 81 311 0.0 6.0 0.00 0.00 0.00 60 1019.0
20170816083114 80 324 1.0 8.0 0.00 0.00 0.00 60 1019.0
20170816082114 80 310 2.0 8.0 0.00 0.00 0.00 61 1019.0
20170816081114 78 346 6.0 9.0 0.00 0.00 0.00 63 1019.0
20170816073114 76 319 3.0 8.0 0.00 0.00 0.00 65 1019.0
20170816072114 76 344 5.0 12.0 0.00 0.00 0.00 64 1019.0
20170816070113 74 344 6.0 10.0 0.00 0.00 0.00 68 1019.0
20170816065114 74 342 4.0 8.0 0.00 0.00 0.00 69 1019.0
20170816064113 73 319 6.0 9.0 0.00 0.00 0.00 73 1019.0
20170816063113 71 311 6.0 10.0 0.00 0.00 0.00 74 1019.0
20170816061113 69 319 0.0 2.0 0.00 0.00 0.00 81 1019.0
20170816060113 68 308 0.0 2.0 0.00 0.00 0.00 83 1019.0
20170816055114 67 330 0.0 2.0 0.00 0.00 0.00 86 1019.0
20170816054114 65 321 0.0 2.0 0.00 0.00 0.00 89 1019.0
20170816053113 64 148 0.0 0.0 0.00 0.00 0.00 93 1019.0
20170816051114 61 146 0.0 0.0 0.00 0.00 0.00 93 1019.0
20170816050113 60 146 0.0 0.0 0.00 0.00 0.00 93 1019.0
20170816045114 60 146 0.0 0.0 0.00 0.00 0.00 92 1019.0
20170816044114 59 146 0.0 0.0 0.00 0.00 0.00 92 1019.0
20170816042114 59 146 1.0 3.0 0.00 0.00 0.00 92 1019.0
20170816041114 59 146 0.0 0.0 0.00 0.00 0.00 92 1019.0
20170816040113 59 146 0.0 0.0 0.00 0.00 0.00 91 1019.0
20170816035113 59 146 0.0 0.0 0.00 0.00 0.00 91 1019.0
20170816034114 59 146 0.0 0.0 0.00 0.00 0.00 90 1019.0
20170816031114 59 146 0.0 0.0 0.00 0.00 0.00 90 1019.0
20170816024113 60 146 0.0 0.0 0.00 0.00 0.00 89 1019.0
20170816023113 60 146 0.0 0.0 0.00 0.00 0.00 89 1019.0
20170816022114 60 146 0.0 2.0 0.00 0.00 0.00 89 1019.0
20170816021114 60 157 1.0 5.0 0.00 0.00 0.00 88 1019.0
20170816015114 60 204 0.0 0.0 0.00 0.00 0.00 88 1019.0
20170816010114 60 204 0.0 0.0 0.00 0.00 0.00 86 1018.7
20170816005113 61 204 0.0 3.0 0.00 0.00 0.00 86 1018.0
20170816004113 61 154 0.0 0.0 0.00 0.00 0.00 85 1019.0
20170816002113 62 154 0.0 0.0 0.00 0.00 0.00 85 1019.0
20170816001113 62 154 0.0 0.0 0.00 0.00 0.00 84 1019.0
20170816000116 62 154 0.0 3.0 0.00 0.00 0.00 83 1019.0
20170815235114 62 155 0.0 0.0 0.00 0.00 0.00 83 1019.0
20170815234113 62 155 0.0 3.0 0.00 0.00 0.00 82 1019.0
20170815233113 63 155 0.0 3.0 0.00 0.00 0.00 82 1019.0
20170815232114 63 155 0.0 0.0 0.00 0.00 0.00 82 1019.0
20170815230114 64 155 0.0 2.0 0.00 0.00 0.00 81 1019.0
20170815225114 64 155 0.0 0.0 0.00 0.00 0.00 81 1019.0
20170815224114 64 155 0.0 0.0 0.00 0.00 0.00 80 1019.0
20170815221113 65 155 0.0 0.0 0.00 0.00 0.00 79 1019.0
20170815220114 65 155 0.0 0.0 0.00 0.00 0.00 79 1019.0
20170815215114 65 155 0.0 0.0 0.00 0.00 0.00 78 1020.0
20170815214113 65 155 0.0 0.0 0.00 0.00 0.00 78 1020.0
20170815211110 66 155 0.0 0.0 0.00 0.00 0.00 77 1020.0
20170815210114 66 155 0.0 0.0 0.00 0.00 0.00 76 1020.0
20170815205114 66 155 0.0 0.0 0.00 0.00 0.00 76 1020.0
20170815202113 66 155 0.0 0.0 0.00 0.00 0.00 73 1020.0
20170815201113 66 155 0.0 0.0 0.00 0.00 0.00 72 1020.0
20170815200114 67 155 0.0 0.0 0.00 0.00 0.00 72 1019.6
20170815192113 68 287 0.0 0.0 0.00 0.00 0.00 68 1019.0
20170815191113 69 287 0.0 0.0 0.00 0.00 0.00 68 1019.0
20170815190113 69 287 0.0 0.0 0.00 0.00 0.00 66 1019.0
20170815185113 69 287 0.0 0.0 0.00 0.00 0.00 66 1019.0
20170815184114 70 287 0.0 0.0 0.00 0.00 0.00 65 1019.0
20170815183114 70 287 0.0 0.0 0.00 0.00 0.00 64 1019.0
20170815182114 71 287 0.0 0.0 0.00 0.00 0.00 64 1019.0
20170815181116 72 287 0.0 2.0 0.00 0.00 0.00 63 1019.0
20170815180114 72 287 0.0 2.0 0.00 0.00 0.00 62 1019.0
20170815175114 73 287 0.0 0.0 0.00 0.00 0.00 62 1019.0
20170815173113 75 303 0.0 0.0 0.00 0.00 0.00 58 1019.0
20170815172113 76 303 0.0 6.0 0.00 0.00 0.00 55 1019.0
20170815171114 76 336 0.0 3.0 0.00 0.00 0.00 54 1019.0
20170815170114 77 325 0.0 3.0 0.00 0.00 0.00 54 1019.0
20170815165114 78 309 1.0 6.0 0.00 0.00 0.00 52 1019.0
20170815163114 78 10 4.0 9.0 0.00 0.00 0.00 52 1019.0
20170815161113 79 349 3.0 8.0 0.00 0.00 0.00 51 1018.0
20170815160113 79 356 5.0 9.0 0.00 0.00 0.00 51 1018.0
20170815155113 80 27 4.0 8.0 0.00 0.00 0.00 50 1018.0
20170815154113 80 9 3.0 8.0 0.00 0.00 0.00 50 1018.0
20170815153113 81 340 3.0 8.0 0.00 0.00 0.00 50 1018.0